Polaris — JD2797 — position and weather

sailwx.info

Track history (hours):
 
Tides and Currents Weather Stations Pressure Air Temp Water Temp Dewpoint Dewpoint Depression Visibility Wind Speed Wind Dir Waves Ship Positions

Polaris

Last reported at 2014-Jul-27 10:33 UTC. Time now 2014-Jul-28 22:34 UTC.
Position N 35°26' E 139°42'.

Length 26 m.

MMSI: 431000764.

Date/timePositionNaut miles runAvg speedWind from/ knotsBaromVisibWave heightAir tempDewpointWater temp
2014-Jul-27 10:33N 35°26' E 139°42'1110.5
2014-Jul-27 09:33N 35°16' E 139°46'3 3.2
2014-Jul-27 08:33N 35°13' E 139°46'1312.8
2014-Jul-27 07:33N 35°26' E 139°42'2 2.0
2014-Jul-27 06:33N 35°27' E 139°40'0 0.0
2014-Jul-27 05:33N 35°27' E 139°40'0 0.0
2014-Jul-27 04:33N 35°27' E 139°40'0 0.0
2014-Jul-27 03:33N 35°27' E 139°40'0 0.0
2014-Jul-27 02:33N 35°27' E 139°40'0 0.0
2014-Jul-27 01:33N 35°27' E 139°40'0 0.0
2014-Jul-27 00:33N 35°27' E 139°40'0 0.0
2014-Jul-26 23:33N 35°27' E 139°40'5 5.5
2014-Jul-26 22:33N 35°25' E 139°46'1111.0
2014-Jul-26 21:33N 35°14' E 139°47'1 1.5
2014-Jul-26 20:33N 35°13' E 139°46'1313.4
2014-Jul-26 19:33N 35°26' E 139°42'2 1.8
2014-Jul-26 18:34N 35°27' E 139°40'0 0.0
2014-Jul-26 02:12N 35°27' E 139°40'2 3.8
2014-Jul-26 01:33N 35°25' E 139°42'1313.1
2014-Jul-26 00:33N 35°12' E 139°46'1111.4
2014-Jul-25 23:33N 35°23' E 139°43'7 7.1
2014-Jul-25 22:33N 35°23' E 139°51'1 1.1
2014-Jul-25 21:33N 35°22' E 139°52'1211.8
2014-Jul-25 20:33N 35°27' E 139°39'1 0.7
2014-Jul-25 19:33N 35°27' E 139°40'0 0.0
2014-Jul-25 18:33N 35°27' E 139°40'  
2014-Jul-22 09:33N 35°25' E 139°42'1413.6
2014-Jul-22 08:33N 35°12' E 139°46'1212.3
2014-Jul-22 07:33N 35°24' E 139°43'3 2.8
2014-Jul-22 06:33N 35°27' E 139°43'2 0.1
2014-Jul-21 06:11N 35°27' E 139°40'5 8.5
2014-Jul-21 05:33N 35°31' E 139°44'4 3.7
2014-Jul-21 04:34N 35°27' E 139°43'3 2.6
2014-Jul-21 03:33N 35°27' E 139°40'0 0.0
2014-Jul-21 00:33N 35°27' E 139°40'1111.2
2014-Jul-20 23:33N 35°16' E 139°45'4 4.2
2014-Jul-20 22:34N 35°20' E 139°43'5 5.2
2014-Jul-20 21:33N 35°25' E 139°45'5 5.1
2014-Jul-20 20:33N 35°27' E 139°40'0 0.0
2014-Jul-20 19:33N 35°27' E 139°40'0 0.0
2014-Jul-20 18:33N 35°27' E 139°40'0 0.0
2014-Jul-20 17:33N 35°27' E 139°40'0 0.0
2014-Jul-20 16:33N 35°27' E 139°40'0 0.0
2014-Jul-20 15:33N 35°27' E 139°40'1 1.2
2014-Jul-20 14:34N 35°27' E 139°41'10 9.7
2014-Jul-20 13:33N 35°18' E 139°45'8 7.6
2014-Jul-20 12:34N 35°10' E 139°47'1111.3
2014-Jul-20 11:34N 35°21' E 139°42'6 6.0
2014-Jul-20 10:33N 35°27' E 139°40'2 0.3
2014-Jul-20 01:34N 35°27' E 139°43'9 8.8
2014-Jul-20 00:33N 35°18' E 139°45'7 6.8
2014-Jul-19 23:33N 35°11' E 139°47'1010.2
2014-Jul-19 22:33N 35°19' E 139°39'0 0.0
2014-Jul-19 21:33N 35°19' E 139°39'0 0.0
2014-Jul-19 20:33N 35°19' E 139°39'0 0.0
2014-Jul-19 19:33N 35°19' E 139°39'0 0.0
2014-Jul-19 18:33N 35°19' E 139°39'9 8.9
2014-Jul-19 17:33N 35°12' E 139°46'1312.6
2014-Jul-19 16:33N 35°25' E 139°43'2 2.4
2014-Jul-19 15:33N 35°27' E 139°42'3 0.4
2014-Jul-19 07:33N 35°24' E 139°42'1211.6
2014-Jul-19 06:33N 35°13' E 139°46'1212.4
2014-Jul-19 05:34N 35°24' E 139°42'3 3.1
2014-Jul-19 04:33N 35°27' E 139°41'1 1.0
2014-Jul-19 03:34N 35°27' E 139°40'0 0.0
2014-Jul-19 02:34N 35°27' E 139°40'0 0.0
2014-Jul-18 08:33N 35°27' E 139°40'1211.6
2014-Jul-18 07:34N 35°16' E 139°45'4 4.3
2014-Jul-18 06:33N 35°20' E 139°42'1010.3
2014-Jul-18 05:34N 35°28' E 139°49'1110.9
2014-Jul-18 04:33N 35°34' E 140°01'5 4.5
2014-Jul-18 03:33N 35°35' E 140°06'7 6.8
2014-Jul-18 02:34N 35°32' E 139°59'1313.0
2014-Jul-18 01:34N 35°27' E 139°44'  
Track history (hours):
 
Tides and Currents Weather Stations Pressure Air Temp Water Temp Dewpoint Dewpoint Depression Visibility Wind Speed Wind Dir Waves Ship Positions

Polaris

Last reported at 2014-Jul-27 10:33 UTC. Time now 2014-Jul-28 22:34 UTC.
Position N 35°26' E 139°42'.

Length 26 m.

MMSI: 431000764.

Date/timePositionNaut miles runAvg speedWind from/ knotsBaromVisibWave heightAir tempDewpointWater temp
2014-Jul-27 10:33N 35°26' E 139°42'1110.5
2014-Jul-27 09:33N 35°16' E 139°46'3 3.2
2014-Jul-27 08:33N 35°13' E 139°46'1312.8
2014-Jul-27 07:33N 35°26' E 139°42'2 2.0
2014-Jul-27 06:33N 35°27' E 139°40'0 0.0
2014-Jul-27 05:33N 35°27' E 139°40'0 0.0
2014-Jul-27 04:33N 35°27' E 139°40'0 0.0
2014-Jul-27 03:33N 35°27' E 139°40'0 0.0
2014-Jul-27 02:33N 35°27' E 139°40'0 0.0
2014-Jul-27 01:33N 35°27' E 139°40'0 0.0
2014-Jul-27 00:33N 35°27' E 139°40'0 0.0
2014-Jul-26 23:33N 35°27' E 139°40'5 5.5
2014-Jul-26 22:33N 35°25' E 139°46'1111.0
2014-Jul-26 21:33N 35°14' E 139°47'1 1.5
2014-Jul-26 20:33N 35°13' E 139°46'1313.4
2014-Jul-26 19:33N 35°26' E 139°42'2 1.8
2014-Jul-26 18:34N 35°27' E 139°40'0 0.0
2014-Jul-26 02:12N 35°27' E 139°40'2 3.8
2014-Jul-26 01:33N 35°25' E 139°42'1313.1
2014-Jul-26 00:33N 35°12' E 139°46'1111.4
2014-Jul-25 23:33N 35°23' E 139°43'7 7.1
2014-Jul-25 22:33N 35°23' E 139°51'1 1.1
2014-Jul-25 21:33N 35°22' E 139°52'1211.8
2014-Jul-25 20:33N 35°27' E 139°39'1 0.7
2014-Jul-25 19:33N 35°27' E 139°40'0 0.0
2014-Jul-25 18:33N 35°27' E 139°40'  
2014-Jul-22 09:33N 35°25' E 139°42'1413.6
2014-Jul-22 08:33N 35°12' E 139°46'1212.3
2014-Jul-22 07:33N 35°24' E 139°43'3 2.8
2014-Jul-22 06:33N 35°27' E 139°43'2 0.1
2014-Jul-21 06:11N 35°27' E 139°40'5 8.5
2014-Jul-21 05:33N 35°31' E 139°44'4 3.7
2014-Jul-21 04:34N 35°27' E 139°43'3 2.6
2014-Jul-21 03:33N 35°27' E 139°40'0 0.0
2014-Jul-21 00:33N 35°27' E 139°40'1111.2
2014-Jul-20 23:33N 35°16' E 139°45'4 4.2
2014-Jul-20 22:34N 35°20' E 139°43'5 5.2
2014-Jul-20 21:33N 35°25' E 139°45'5 5.1
2014-Jul-20 20:33N 35°27' E 139°40'0 0.0
2014-Jul-20 19:33N 35°27' E 139°40'0 0.0
2014-Jul-20 18:33N 35°27' E 139°40'0 0.0
2014-Jul-20 17:33N 35°27' E 139°40'0 0.0
2014-Jul-20 16:33N 35°27' E 139°40'0 0.0
2014-Jul-20 15:33N 35°27' E 139°40'1 1.2
2014-Jul-20 14:34N 35°27' E 139°41'10 9.7
2014-Jul-20 13:33N 35°18' E 139°45'8 7.6
2014-Jul-20 12:34N 35°10' E 139°47'1111.3
2014-Jul-20 11:34N 35°21' E 139°42'6 6.0
2014-Jul-20 10:33N 35°27' E 139°40'2 0.3
2014-Jul-20 01:34N 35°27' E 139°43'9 8.8
2014-Jul-20 00:33N 35°18' E 139°45'7 6.8
2014-Jul-19 23:33N 35°11' E 139°47'1010.2
2014-Jul-19 22:33N 35°19' E 139°39'0 0.0
2014-Jul-19 21:33N 35°19' E 139°39'0 0.0
2014-Jul-19 20:33N 35°19' E 139°39'0 0.0
2014-Jul-19 19:33N 35°19' E 139°39'0 0.0
2014-Jul-19 18:33N 35°19' E 139°39'9 8.9
2014-Jul-19 17:33N 35°12' E 139°46'1312.6
2014-Jul-19 16:33N 35°25' E 139°43'2 2.4
2014-Jul-19 15:33N 35°27' E 139°42'3 0.4
2014-Jul-19 07:33N 35°24' E 139°42'1211.6
2014-Jul-19 06:33N 35°13' E 139°46'1212.4
2014-Jul-19 05:34N 35°24' E 139°42'3 3.1
2014-Jul-19 04:33N 35°27' E 139°41'1 1.0
2014-Jul-19 03:34N 35°27' E 139°40'0 0.0
2014-Jul-19 02:34N 35°27' E 139°40'0 0.0
2014-Jul-18 08:33N 35°27' E 139°40'1211.6
2014-Jul-18 07:34N 35°16' E 139°45'4 4.3
2014-Jul-18 06:33N 35°20' E 139°42'1010.3
2014-Jul-18 05:34N 35°28' E 139°49'1110.9
2014-Jul-18 04:33N 35°34' E 140°01'5 4.5
2014-Jul-18 03:33N 35°35' E 140°06'7 6.8
2014-Jul-18 02:34N 35°32' E 139°59'1313.0
2014-Jul-18 01:34N 35°27' E 139°44'  

Dump ship's entire track history